| time (UTC) | temp F | wind direction | speed MPH | gust MPH | rain 1hr in | rain 24hr in | rain mn in | humidity % | barometer mb |
| 20260502203003 | 67 | 12 | 4.0 | 11.0 | 0.00 | 0.00 | 0.00 | 32 | 1019.0 |
| 20260502202003 | 67 | 43 | 5.0 | 11.0 | 0.00 | 0.00 | 0.00 | 33 | 1019.2 |
| 20260502201003 | 66 | 30 | 5.0 | 12.0 | 0.00 | 0.00 | 0.00 | 33 | 1019.2 |
| 20260502200214 | 66 | 14 | 6.0 | 15.0 | 0.00 | 0.00 | 0.00 | 33 | 1019.2 |
| 20260502195003 | 67 | 18 | 5.0 | 16.0 | 0.00 | 0.00 | 0.00 | 33 | 1019.3 |
| 20260502194214 | 66 | 7 | 6.0 | 13.0 | 0.00 | 0.00 | 0.00 | 34 | 1019.3 |
| 20260502193214 | 65 | 360 | 5.0 | 11.0 | 0.00 | 0.00 | 0.00 | 32 | 1019.4 |
| 20260502192003 | 66 | 27 | 6.0 | 14.0 | 0.00 | 0.00 | 0.00 | 33 | 1019.4 |
| 20260502191003 | 66 | 10 | 6.0 | 12.0 | 0.00 | 0.00 | 0.00 | 34 | 1019.4 |
| 20260502190004 | 65 | 7 | 6.0 | 11.0 | 0.00 | 0.00 | 0.00 | 37 | 1019.3 |
| 20260502185003 | 65 | 358 | 6.0 | 14.0 | 0.00 | 0.00 | 0.00 | 33 | 1019.4 |
| 20260502184003 | 64 | 7 | 8.0 | 15.0 | 0.00 | 0.00 | 0.00 | 34 | 1019.3 |
| 20260502183003 | 64 | 13 | 8.0 | 17.0 | 0.00 | 0.00 | 0.00 | 35 | 1019.3 |
| 20260502182003 | 64 | 10 | 9.0 | 16.0 | 0.00 | 0.00 | 0.00 | 36 | 1019.2 |
| 20260502181213 | 64 | 7 | 8.0 | 15.0 | 0.00 | 0.00 | 0.00 | 38 | 1019.2 |
| 20260502180213 | 64 | 6 | 9.0 | 15.0 | 0.00 | 0.00 | 0.00 | 38 | 1019.1 |
| 20260502164003 | 61 | 360 | 8.0 | 14.0 | 0.00 | 0.00 | 0.00 | 40 | 1018.7 |
| 20260502163003 | 60 | 3 | 7.0 | 15.0 | 0.00 | 0.00 | 0.00 | 40 | 1018.7 |
| 20260502162003 | 60 | 5 | 9.0 | 15.0 | 0.00 | 0.00 | 0.00 | 39 | 1018.7 |
| 20260502161003 | 61 | 357 | 8.0 | 15.0 | 0.00 | 0.00 | 0.00 | 39 | 1018.7 |
| 20260502152214 | 60 | 3 | 4.0 | 9.0 | 0.00 | 0.00 | 0.00 | 44 | 1018.7 |
| 20260502151003 | 58 | 11 | 0.0 | 1.0 | 0.00 | 0.00 | 0.00 | 46 | 1018.9 |
| 20260502123003 | 57 | 9 | 7.0 | 12.0 | 0.00 | 0.00 | 0.00 | 45 | 1017.5 |
| 20260502122003 | 57 | 15 | 7.0 | 14.0 | 0.00 | 0.00 | 0.00 | 46 | 1017.5 |
| 20260502121213 | 56 | 10 | 8.0 | 14.0 | 0.00 | 0.00 | 0.00 | 47 | 1017.8 |
| 20260502115003 | 54 | 342 | 3.0 | 7.0 | 0.00 | 0.00 | 0.00 | 51 | 1018.2 |
| 20260502114003 | 54 | 325 | 2.0 | 6.0 | 0.00 | 0.00 | 0.00 | 53 | 1018.3 |
| 20260502113003 | 54 | 317 | 2.0 | 7.0 | 0.00 | 0.00 | 0.00 | 52 | 1018.4 |
| 20260502112213 | 55 | 313 | 2.0 | 9.0 | 0.00 | 0.00 | 0.00 | 51 | 1018.4 |
| 20260502111213 | 54 | 340 | 1.0 | 6.0 | 0.00 | 0.00 | 0.00 | 53 | 1018.3 |
| 20260502110003 | 54 | 347 | 3.0 | 6.0 | 0.00 | 0.00 | 0.00 | 56 | 1018.2 |
| 20260502105214 | 54 | 335 | 2.0 | 6.0 | 0.00 | 0.00 | 0.00 | 55 | 1018.2 |
| 20260502104003 | 54 | 329 | 2.0 | 6.0 | 0.00 | 0.00 | 0.00 | 54 | 1018.2 |
| 20260502103003 | 55 | 359 | 3.0 | 8.0 | 0.00 | 0.00 | 0.00 | 53 | 1018.2 |
| 20260502101003 | 55 | 297 | 8.0 | 9.0 | 0.00 | 0.00 | 0.00 | 50 | 1018.4 |
| 20260502091214 | 51 | 327 | 2.0 | 4.0 | 0.00 | 0.00 | 0.00 | 58 | 1018.1 |
| 20260502071003 | 49 | 330 | 4.0 | 6.0 | 0.00 | 0.00 | 0.00 | 60 | 1018.2 |
| 20260502070003 | 49 | 328 | 3.0 | 5.0 | 0.00 | 0.00 | 0.00 | 61 | 1018.1 |
| 20260502065003 | 49 | 336 | 3.0 | 6.0 | 0.00 | 0.00 | 0.00 | 60 | 1018.1 |
| 20260502064003 | 49 | 334 | 4.0 | 7.0 | 0.00 | 0.00 | 0.00 | 59 | 1018.1 |
| 20260502063003 | 50 | 335 | 5.0 | 6.0 | 0.00 | 0.00 | 0.00 | 58 | 1018.1 |
| 20260502062003 | 51 | 334 | 3.0 | 6.0 | 0.00 | 0.00 | 0.00 | 55 | 1018.2 |
| 20260502061003 | 51 | 332 | 3.0 | 6.0 | 0.00 | 0.00 | 0.00 | 55 | 1018.1 |
| 20260502060003 | 51 | 326 | 4.0 | 5.0 | 0.00 | 0.00 | 0.00 | 55 | 1018.0 |
| 20260502055003 | 50 | 324 | 4.0 | 6.0 | 0.00 | 0.00 | 0.00 | 57 | 1018.1 |
| 20260502054003 | 50 | 323 | 1.0 | 4.0 | 0.00 | 0.00 | 0.00 | 57 | 1018.1 |
| 20260502053003 | 50 | 334 | 3.0 | 5.0 | 0.00 | 0.00 | 0.00 | 56 | 1018.1 |
| 20260502052213 | 51 | 334 | 3.0 | 5.0 | 0.00 | 0.00 | 0.00 | 55 | 1018.1 |
| 20260502051003 | 51 | 328 | 3.0 | 6.0 | 0.00 | 0.00 | 0.00 | 55 | 1018.0 |
| 20260502050004 | 50 | 336 | 5.0 | 7.0 | 0.00 | 0.00 | 0.00 | 57 | 1018.1 |
| 20260502045212 | 51 | 335 | 4.0 | 6.0 | 0.00 | 0.00 | 0.00 | 55 | 1018.2 |
| 20260502044005 | 50 | 335 | 4.0 | 5.0 | 0.00 | 0.00 | 0.00 | 55 | 1018.2 |
| 20260502043003 | 50 | 333 | 4.0 | 6.0 | 0.00 | 0.00 | 0.00 | 56 | 1018.1 |
| 20260502042003 | 51 | 335 | 3.0 | 6.0 | 0.00 | 0.00 | 0.00 | 54 | 1018.1 |
| 20260502041003 | 52 | 335 | 4.0 | 6.0 | 0.00 | 0.00 | 0.00 | 55 | 1017.8 |
| 20260502040003 | 52 | 335 | 3.0 | 4.0 | 0.00 | 0.00 | 0.00 | 53 | 1017.8 |
| 20260502035214 | 53 | 332 | 3.0 | 5.0 | 0.00 | 0.00 | 0.00 | 52 | 1017.7 |
| 20260502034003 | 53 | 331 | 4.0 | 6.0 | 0.00 | 0.00 | 0.00 | 54 | 1017.6 |
| 20260502033003 | 56 | 326 | 2.0 | 4.0 | 0.00 | 0.00 | 0.00 | 50 | 1017.6 |
| 20260502032003 | 55 | 326 | 2.0 | 4.0 | 0.00 | 0.00 | 0.00 | 51 | 1017.5 |
| 20260502031004 | 57 | 0 | 0.0 | 0.0 | 0.00 | 0.00 | 0.00 | 47 | 1017.5 |
| 20260502030003 | 58 | 0 | 0.0 | 0.0 | 0.00 | 0.00 | 0.00 | 47 | 1017.4 |
| 20260502025213 | 59 | 91 | 0.0 | 1.0 | 0.00 | 0.00 | 0.00 | 47 | 1017.4 |
| 20260502024213 | 59 | 0 | 0.0 | 0.0 | 0.00 | 0.00 | 0.00 | 44 | 1017.4 |
| 20260502023003 | 60 | 89 | 0.0 | 1.0 | 0.00 | 0.00 | 0.00 | 43 | 1017.3 |
| 20260502022004 | 60 | 0 | 0.0 | 0.0 | 0.00 | 0.00 | 0.00 | 42 | 1017.3 |
| 20260502021003 | 61 | 123 | 0.0 | 3.0 | 0.00 | 0.00 | 0.00 | 40 | 1017.3 |
| 20260502020213 | 62 | 0 | 0.0 | 0.0 | 0.00 | 0.00 | 0.00 | 39 | 1017.3 |
| 20260502015003 | 62 | 102 | 1.0 | 3.0 | 0.00 | 0.00 | 0.00 | 39 | 1017.3 |
| 20260502014003 | 62 | 119 | 1.0 | 3.0 | 0.00 | 0.00 | 0.00 | 40 | 1017.4 |
| 20260502013003 | 62 | 149 | 3.0 | 5.0 | 0.00 | 0.00 | 0.00 | 39 | 1017.5 |
| 20260502012003 | 62 | 151 | 4.0 | 7.0 | 0.00 | 0.00 | 0.00 | 38 | 1017.5 |
| 20260502011003 | 62 | 138 | 4.0 | 9.0 | 0.00 | 0.00 | 0.00 | 38 | 1017.5 |
| 20260502010003 | 63 | 133 | 3.0 | 8.0 | 0.00 | 0.00 | 0.00 | 37 | 1017.6 |
| 20260502005003 | 63 | 130 | 4.0 | 9.0 | 0.00 | 0.00 | 0.00 | 36 | 1017.6 |
| 20260502004004 | 64 | 102 | 2.0 | 6.0 | 0.00 | 0.00 | 0.00 | 35 | 1017.5 |
| 20260502003003 | 64 | 142 | 2.0 | 6.0 | 0.00 | 0.00 | 0.00 | 35 | 1017.6 |
| 20260502002003 | 64 | 147 | 2.0 | 8.0 | 0.00 | 0.00 | 0.00 | 34 | 1017.7 |
| 20260502001003 | 64 | 208 | 1.0 | 5.0 | 0.00 | 0.00 | 0.00 | 35 | 1017.8 |
| 20260502000004 | 64 | 153 | 3.0 | 7.0 | 0.00 | 0.00 | 0.00 | 34 | 1017.9 |
| 20260501235003 | 64 | 157 | 4.0 | 7.0 | 0.00 | 0.00 | 0.00 | 35 | 1017.9 |
| 20260501234212 | 64 | 124 | 3.0 | 8.0 | 0.00 | 0.00 | 0.00 | 34 | 1017.9 |
| 20260501233003 | 63 | 112 | 3.0 | 8.0 | 0.00 | 0.00 | 0.00 | 34 | 1018.0 |
| 20260501232212 | 63 | 136 | 3.0 | 7.0 | 0.00 | 0.00 | 0.00 | 34 | 1018.1 |
| 20260501231003 | 63 | 90 | 4.0 | 8.0 | 0.00 | 0.00 | 0.00 | 33 | 1018.2 |
| 20260501230005 | 62 | 123 | 3.0 | 8.0 | 0.00 | 0.00 | 0.00 | 37 | 1018.2 |
| 20260501225214 | 62 | 109 | 4.0 | 8.0 | 0.00 | 0.00 | 0.00 | 36 | 1018.4 |
| 20260501224003 | 62 | 103 | 4.0 | 6.0 | 0.00 | 0.00 | 0.00 | 36 | 1018.5 |
| 20260501223003 | 62 | 117 | 4.0 | 9.0 | 0.00 | 0.00 | 0.00 | 36 | 1018.6 |
| 20260501222003 | 62 | 134 | 6.0 | 12.0 | 0.00 | 0.00 | 0.00 | 36 | 1018.7 |
| 20260501221003 | 62 | 143 | 5.0 | 9.0 | 0.00 | 0.00 | 0.00 | 35 | 1018.7 |
| 20260501220003 | 63 | 123 | 5.0 | 10.0 | 0.00 | 0.00 | 0.00 | 35 | 1018.7 |
| 20260501215003 | 64 | 146 | 4.0 | 11.0 | 0.00 | 0.00 | 0.00 | 33 | 1018.8 |
| 20260501214003 | 63 | 109 | 5.0 | 10.0 | 0.00 | 0.00 | 0.00 | 34 | 1018.9 |
| 20260501213003 | 64 | 131 | 4.0 | 12.0 | 0.00 | 0.00 | 0.00 | 33 | 1018.8 |
| 20260501212003 | 65 | 132 | 4.0 | 9.0 | 0.00 | 0.00 | 0.00 | 31 | 1018.9 |
| 20260501211003 | 65 | 120 | 2.0 | 10.0 | 0.00 | 0.00 | 0.00 | 31 | 1018.9 |
| 20260501210004 | 65 | 131 | 3.0 | 10.0 | 0.00 | 0.00 | 0.00 | 31 | 1019.0 |
| 20260501205003 | 65 | 120 | 4.0 | 9.0 | 0.00 | 0.00 | 0.00 | 32 | 1019.1 |
| 20260501204213 | 65 | 112 | 3.0 | 7.0 | 0.00 | 0.00 | 0.00 | 33 | 1019.0 |